Previsão horária em Barma

Hoje, 22 Outubro, Quinta-feira

Tempo Temperatura Precipitação Vento Pressão Humidade
00:00 +2°C° 0.1 mm 3 m/s 747 mmHg 95%
01:00 +2°C° 0.1 mm 3 m/s 747 mmHg 94%
02:00 +2°C° 0.1 mm 3 m/s 747 mmHg 94%
03:00 +3°C° 0 mm 3 m/s 746 mmHg 93%
04:00 +3°C° 0.1 mm 3 m/s 746 mmHg 93%
05:00 +4°C° 0.1 mm 2 m/s 746 mmHg 93%
06:00 +4°C° 0.1 mm 2 m/s 746 mmHg 94%
07:00 +4°C° 0 mm 2 m/s 746 mmHg 93%
08:00 +3°C° 0 mm 3 m/s 746 mmHg 92%
09:00 +4°C° 0 mm 3 m/s 746 mmHg 92%
10:00 +5°C° 0 mm 3 m/s 746 mmHg 88%
11:00 +5°C° 0 mm 3 m/s 746 mmHg 84%
12:00 +7°C° 0 mm 3 m/s 746 mmHg 81%
13:00 +8°C° 0 mm 3 m/s 746 mmHg 79%
14:00 +8°C° 0 mm 3 m/s 745 mmHg 77%
15:00 +7°C° 0 mm 4 m/s 745 mmHg 76%
16:00 +7°C° 0 mm 4 m/s 744 mmHg 78%
17:00 +7°C° 0 mm 4 m/s 744 mmHg 80%
18:00 +6°C° 0 mm 4 m/s 743 mmHg 83%
19:00 +6°C° 0.4 mm 4 m/s 742 mmHg 85%
20:00 +6°C° 0.4 mm 5 m/s 742 mmHg 87%
21:00 +7°C° 0.4 mm 5 m/s 742 mmHg 89%
22:00 +6°C° 0 mm 5 m/s 741 mmHg 88%
23:00 +6°C° 0 mm 5 m/s 740 mmHg 87%

Amanhã, 23 Outubro, Sexta-feira

Tempo Temperatura Precipitação Vento Pressão Humidade
00:00 +6°C° 0 mm 5 m/s 740 mmHg 86%
01:00 +7°C° 0 mm 5 m/s 739 mmHg 86%
02:00 +7°C° 0 mm 6 m/s 739 mmHg 87%
03:00 +7°C° 0 mm 6 m/s 739 mmHg 87%
04:00 +8°C° 0 mm 6 m/s 739 mmHg 87%
05:00 +8°C° 0 mm 7 m/s 739 mmHg 87%
06:00 +9°C° 0 mm 7 m/s 738 mmHg 88%
07:00 +9°C° 0 mm 7 m/s 739 mmHg 87%
08:00 +10°C° 0 mm 7 m/s 739 mmHg 86%
09:00 +10°C° 0 mm 7 m/s 739 mmHg 85%
10:00 +10°C° 0 mm 7 m/s 739 mmHg 83%
11:00 +10°C° 0 mm 7 m/s 739 mmHg 82%
12:00 +11°C° 0 mm 7 m/s 740 mmHg 81%
13:00 +11°C° 0 mm 7 m/s 740 mmHg 80%
14:00 +11°C° 0 mm 6 m/s 740 mmHg 79%
15:00 +11°C° 0 mm 6 m/s 740 mmHg 78%
16:00 +12°C° 0 mm 5 m/s 739 mmHg 81%
17:00 +10°C° 0 mm 5 m/s 739 mmHg 84%
18:00 +11°C° 0 mm 4 m/s 739 mmHg 87%
19:00 +10°C° 0.4 mm 5 m/s 738 mmHg 88%
20:00 +10°C° 0.4 mm 5 m/s 738 mmHg 88%
21:00 +10°C° 0.4 mm 6 m/s 737 mmHg 88%
22:00 +10°C° 0.8 mm 6 m/s 737 mmHg 88%
23:00 +11°C° 0.8 mm 6 m/s 737 mmHg 88%

Depois de amanhã, 24 Outubro, Sábado

Tempo Temperatura Precipitação Vento Pressão Humidade
00:00 +11°C° 0.8 mm 6 m/s 737 mmHg 89%
01:00 +10°C° 0 mm 6 m/s 737 mmHg 90%
02:00 +10°C° 0 mm 6 m/s 737 mmHg 91%
03:00 +9°C° 0 mm 5 m/s 737 mmHg 92%
04:00 +9°C° 0 mm 5 m/s 738 mmHg 90%
05:00 +9°C° 0 mm 5 m/s 738 mmHg 89%
06:00 +9°C° 0 mm 5 m/s 738 mmHg 88%
07:00 +9°C° 0 mm 5 m/s 739 mmHg 88%
08:00 +8°C° 0 mm 5 m/s 739 mmHg 89%
09:00 +8°C° 0 mm 4 m/s 739 mmHg 89%
10:00 +10°C° 0 mm 4 m/s 740 mmHg 86%
11:00 +10°C° 0 mm 4 m/s 740 mmHg 82%
12:00 +10°C° 0 mm 4 m/s 740 mmHg 79%
13:00 +10°C° 0 mm 4 m/s 740 mmHg 78%
14:00 +10°C° 0 mm 4 m/s 740 mmHg 77%
15:00 +10°C° 0 mm 4 m/s 740 mmHg 76%
16:00 +10°C° 0 mm 3 m/s 740 mmHg 77%
17:00 +10°C° 0 mm 2 m/s 740 mmHg 79%
18:00 +9°C° 0 mm 2 m/s 740 mmHg 80%
19:00 +9°C° 0 mm 2 m/s 741 mmHg 80%
20:00 +9°C° 0 mm 2 m/s 741 mmHg 80%
21:00 +10°C° 0 mm 1 m/s 741 mmHg 80%
22:00 +10°C° 0 mm 1 m/s 741 mmHg 80%
23:00 +10°C° 0 mm 1 m/s 741 mmHg 80%

, 25 Outubro, Domingo

Tempo Temperatura Precipitação Vento Pressão Humidade
00:00 +10°C° 0 mm 1 m/s 740 mmHg 81%
01:00 +10°C° 0.1 mm 1 m/s 740 mmHg 82%
02:00 +10°C° 0.1 mm 1 m/s 740 mmHg 84%
03:00 +9°C° 0.1 mm 2 m/s 740 mmHg 86%
04:00 +9°C° 0.5 mm 2 m/s 740 mmHg 89%
05:00 +9°C° 0.5 mm 1 m/s 740 mmHg 92%
06:00 +9°C° 0.5 mm 1 m/s 740 mmHg 94%
07:00 +8°C° 0.1 mm 2 m/s 740 mmHg 92%
08:00 +8°C° 0.1 mm 3 m/s 740 mmHg 89%
09:00 +7°C° 0.1 mm 4 m/s 740 mmHg 86%
10:00 +8°C° 0 mm 5 m/s 740 mmHg 80%
11:00 +8°C° 0 mm 5 m/s 740 mmHg 74%
12:00 +9°C° 0 mm 5 m/s 741 mmHg 68%
13:00 +9°C° 0 mm 5 m/s 741 mmHg 72%
14:00 +9°C° 0 mm 5 m/s 741 mmHg 75%
15:00 +9°C° 0 mm 5 m/s 742 mmHg 79%
16:00 +8°C° 0.1 mm 4 m/s 742 mmHg 81%
17:00 +8°C° 0.1 mm 4 m/s 742 mmHg 82%
18:00 +8°C° 0.1 mm 4 m/s 743 mmHg 84%
19:00 +7°C° 0 mm 4 m/s 743 mmHg 85%
20:00 +7°C° 0 mm 4 m/s 744 mmHg 86%
21:00 +6°C° 0 mm 4 m/s 745 mmHg 87%
22:00 +6°C° 0 mm 4 m/s 745 mmHg 88%
23:00 +5°C° 0 mm 4 m/s 745 mmHg 89%

25 Outubro, Domingo

Tempo Temperatura Precipitação Vento Pressão Humidade
00:00 +10°C° 0 mm 1 m/s 740 mmHg 81%
01:00 +10°C° 0.1 mm 1 m/s 740 mmHg 82%
02:00 +10°C° 0.1 mm 1 m/s 740 mmHg 84%
03:00 +9°C° 0.1 mm 2 m/s 740 mmHg 86%
04:00 +9°C° 0.5 mm 2 m/s 740 mmHg 89%
05:00 +9°C° 0.5 mm 1 m/s 740 mmHg 92%
06:00 +9°C° 0.5 mm 1 m/s 740 mmHg 94%
07:00 +8°C° 0.1 mm 2 m/s 740 mmHg 92%
08:00 +8°C° 0.1 mm 3 m/s 740 mmHg 89%
09:00 +7°C° 0.1 mm 4 m/s 740 mmHg 86%
10:00 +8°C° 0 mm 5 m/s 740 mmHg 80%
11:00 +8°C° 0 mm 5 m/s 740 mmHg 74%
12:00 +9°C° 0 mm 5 m/s 741 mmHg 68%
13:00 +9°C° 0 mm 5 m/s 741 mmHg 72%
14:00 +9°C° 0 mm 5 m/s 741 mmHg 75%
15:00 +9°C° 0 mm 5 m/s 742 mmHg 79%
16:00 +8°C° 0.1 mm 4 m/s 742 mmHg 81%
17:00 +8°C° 0.1 mm 4 m/s 742 mmHg 82%
18:00 +8°C° 0.1 mm 4 m/s 743 mmHg 84%
19:00 +7°C° 0 mm 4 m/s 743 mmHg 85%
20:00 +7°C° 0 mm 4 m/s 744 mmHg 86%
21:00 +6°C° 0 mm 4 m/s 745 mmHg 87%
22:00 +6°C° 0 mm 4 m/s 745 mmHg 88%
23:00 +5°C° 0 mm 4 m/s 745 mmHg 89%

26 Outubro, Segunda-feira

Tempo Temperatura Precipitação Vento Pressão Humidade
00:00 +5°C° 0 mm 4 m/s 746 mmHg 90%
01:00 +5°C° 0 mm 4 m/s 746 mmHg 90%
02:00 +5°C° 0 mm 4 m/s 747 mmHg 90%
03:00 +5°C° 0 mm 4 m/s 747 mmHg 89%
04:00 +4°C° 0 mm 3 m/s 748 mmHg 91%
05:00 +4°C° 0 mm 3 m/s 748 mmHg 92%
06:00 +3°C° 0 mm 3 m/s 749 mmHg 93%
07:00 +3°C° 0 mm 3 m/s 749 mmHg 92%
08:00 +4°C° 0 mm 3 m/s 750 mmHg 90%
09:00 +4°C° 0 mm 3 m/s 750 mmHg 89%
10:00 +6°C° 0 mm 2 m/s 750 mmHg 82%
11:00 +7°C° 0 mm 2 m/s 751 mmHg 76%
12:00 +8°C° 0 mm 2 m/s 751 mmHg 70%
13:00 +8°C° 0 mm 2 m/s 751 mmHg 66%
14:00 +8°C° 0 mm 2 m/s 751 mmHg 63%
15:00 +8°C° 0 mm 2 m/s 751 mmHg 60%
16:00 +8°C° 0 mm 1 m/s 751 mmHg 64%
17:00 +8°C° 0 mm 1 m/s 751 mmHg 68%
18:00 +7°C° 0 mm 1 m/s 751 mmHg 72%
19:00 +6°C° 0 mm 1 m/s 752 mmHg 73%
20:00 +6°C° 0 mm 1 m/s 752 mmHg 74%
21:00 +5°C° 0 mm 2 m/s 752 mmHg 76%
22:00 +4°C° 0 mm 2 m/s 752 mmHg 76%
23:00 +4°C° 0 mm 2 m/s 753 mmHg 77%

27 Outubro, Terça-feira

Tempo Temperatura Precipitação Vento Pressão Humidade
00:00 +3°C° 0 mm 2 m/s 753 mmHg 78%
01:00 +3°C° 0 mm 2 m/s 753 mmHg 78%
02:00 +3°C° 0 mm 2 m/s 753 mmHg 78%
03:00 +3°C° 0 mm 2 m/s 753 mmHg 79%
04:00 +3°C° 0 mm 2 m/s 753 mmHg 80%
05:00 +2°C° 0 mm 2 m/s 753 mmHg 81%
06:00 +2°C° 0 mm 2 m/s 753 mmHg 82%
07:00 +3°C° 0 mm 2 m/s 754 mmHg 81%
08:00 +2°C° 0 mm 3 m/s 754 mmHg 79%
09:00 +2°C° 0 mm 3 m/s 754 mmHg 77%
10:00 +4°C° 0 mm 3 m/s 754 mmHg 72%
11:00 +5°C° 0 mm 3 m/s 754 mmHg 68%
12:00 +6°C° 0 mm 4 m/s 754 mmHg 63%
13:00 +6°C° 0 mm 4 m/s 754 mmHg 62%
14:00 +7°C° 0 mm 4 m/s 754 mmHg 61%
15:00 +7°C° 0 mm 4 m/s 753 mmHg 60%
16:00 +7°C° 0 mm 3 m/s 753 mmHg 65%
17:00 +5°C° 0 mm 3 m/s 753 mmHg 69%
18:00 +4°C° 0 mm 3 m/s 753 mmHg 74%
19:00 +4°C° 0 mm 3 m/s 753 mmHg 73%
20:00 +4°C° 0 mm 4 m/s 753 mmHg 73%
21:00 +4°C° 0 mm 4 m/s 753 mmHg 72%
22:00 +4°C° 0 mm 4 m/s 752 mmHg 72%
23:00 +4°C° 0 mm 4 m/s 752 mmHg 72%
Mostrar mais